Time,TemperatureF,DewpointF,PressureIn,WindDirection,WindDirectionDegrees,WindSpeedMPH,WindSpeedGustMPH,Humidity,HourlyPrecipIn,Conditions,Clouds,dailyrainin,SoftwareType,DateUTC
2013-09-11 00:01:00,67.0,65.0,29.88,West,261,0.0,0.0,92,-99.99,,,-99.99,,2013-09-11 05:01:00,
2013-09-11 00:03:00,67.0,64.0,29.88,West,262,0.0,0.0,91,-99.99,,,-99.99,,2013-09-11 05:03:00,
2013-09-11 00:13:00,67.0,64.0,29.88,West,262,0.0,0.0,91,-99.99,,,-99.99,,2013-09-11 05:13:00,
2013-09-11 00:23:00,67.0,65.0,29.88,West,261,0.0,0.0,92,-99.99,,,-99.99,,2013-09-11 05:23:00,
2013-09-11 00:43:00,67.0,65.0,29.88,West,261,0.0,0.0,92,-99.99,,,-99.99,,2013-09-11 05:43:00,
2013-09-11 00:53:00,67.0,65.0,29.88,West,261,0.0,0.0,92,-99.99,,,-99.99,,2013-09-11 05:53:00,
2013-09-11 01:22:00,67.0,65.0,29.88,West,262,0.0,0.0,93,-99.99,,,-99.99,,2013-09-11 06:22:00,
2013-09-11 01:42:00,67.0,65.0,29.89,West,262,0.0,0.0,94,-99.99,,,-99.99,,2013-09-11 06:42:00,
2013-09-11 01:52:00,68.0,66.0,29.89,West,268,0.0,0.0,93,-99.99,,,-99.99,,2013-09-11 06:52:00,
2013-09-11 02:01:00,68.0,66.0,29.89,West,268,0.0,0.0,93,-99.99,,,-99.99,,2013-09-11 07:01:00,
2013-09-11 02:12:00,68.0,66.0,29.89,West,268,0.0,0.0,93,-99.99,,,-99.99,,2013-09-11 07:12:00,
2013-09-11 02:23:00,67.0,65.0,29.89,West,268,0.0,0.0,93,-99.99,,,-99.99,,2013-09-11 07:23:00,
2013-09-11 02:32:00,67.0,65.0,29.89,West,268,0.0,0.0,93,-99.99,,,-99.99,,2013-09-11 07:32:00,
2013-09-11 02:42:00,67.0,65.0,29.89,West,268,0.0,0.0,93,-99.99,,,-99.99,,2013-09-11 07:42:00,
2013-09-11 02:52:00,67.0,65.0,29.89,West,268,0.0,0.0,93,-99.99,,,-99.99,,2013-09-11 07:52:00,
2013-09-11 03:52:00,67.0,66.0,29.90,SE,141,0.0,0.0,95,-99.99,,,-99.99,,2013-09-11 08:52:00,
2013-09-11 04:12:00,67.0,66.0,29.91,West,276,0.0,0.0,95,-99.99,,,-99.99,,2013-09-11 09:12:00,
2013-09-11 04:21:00,67.0,66.0,29.91,SW,231,0.0,0.0,95,-99.99,,,-99.99,,2013-09-11 09:21:00,
2013-09-11 04:43:00,67.0,66.0,29.91,WSW,250,0.0,0.0,95,-99.99,,,-99.99,,2013-09-11 09:43:00,
2013-09-11 04:53:00,67.0,66.0,29.90,WSW,250,0.0,0.0,95,-99.99,,,-99.99,,2013-09-11 09:53:00,
2013-09-11 05:13:00,66.0,65.0,29.91,WSW,246,0.0,0.0,95,-99.99,,,-99.99,,2013-09-11 10:13:00,
2013-09-11 05:23:00,66.0,65.0,29.91,WSW,246,0.0,0.0,95,-99.99,,,-99.99,,2013-09-11 10:23:00,
2013-09-11 05:42:00,65.0,64.0,29.92,SW,229,0.0,0.0,95,-99.99,,,-99.99,,2013-09-11 10:42:00,
2013-09-11 05:53:00,65.0,64.0,29.91,SW,228,0.0,0.0,96,-99.99,,,-99.99,,2013-09-11 10:53:00,
2013-09-11 06:12:00,65.0,64.0,29.92,SW,222,0.0,0.0,96,-99.99,,,-99.99,,2013-09-11 11:12:00,
2013-09-11 06:21:00,64.0,63.0,29.92,SW,222,0.0,0.0,96,-99.99,,,-99.99,,2013-09-11 11:21:00,
2013-09-11 06:52:00,64.0,63.0,29.92,SSE,165,0.0,0.0,96,-99.99,,,-99.99,,2013-09-11 11:52:00,
2013-09-11 07:01:00,64.0,63.0,29.92,SSE,165,0.0,0.0,96,-99.99,,,-99.99,,2013-09-11 12:01:00,
2013-09-11 07:11:00,64.0,63.0,29.92,SSE,165,0.0,0.0,96,-99.99,,,-99.99,,2013-09-11 12:11:00,
2013-09-11 07:52:00,64.0,63.0,29.93,SW,218,0.0,0.0,96,-99.99,,,-99.99,,2013-09-11 12:52:00,
2013-09-11 08:12:00,64.0,63.0,29.93,SW,218,0.0,0.0,96,-99.99,,,-99.99,,2013-09-11 13:12:00,
2013-09-11 08:22:00,65.0,64.0,29.94,West,267,0.0,0.0,97,-99.99,,,-99.99,,2013-09-11 13:22:00,
2013-09-11 08:42:00,66.0,65.0,29.94,West,273,0.0,0.0,96,-99.99,,,-99.99,,2013-09-11 13:42:00,
2013-09-11 08:52:00,66.0,65.0,29.93,West,261,0.0,0.0,95,-99.99,,,-99.99,,2013-09-11 13:52:00,
2013-09-11 09:11:00,66.0,65.0,29.94,WSW,242,0.0,0.0,95,-99.99,,,-99.99,,2013-09-11 14:11:00,
2013-09-11 09:22:00,66.0,65.0,29.94,SSE,162,0.0,0.0,95,-99.99,,,-99.99,,2013-09-11 14:22:00,
2013-09-11 09:42:00,68.0,66.0,29.93,West,262,0.0,0.0,94,-99.99,,,-99.99,,2013-09-11 14:42:00,
2013-09-11 09:52:00,70.0,66.0,29.94,WSW,252,0.0,0.0,88,-99.99,,,-99.99,,2013-09-11 14:52:00,
2013-09-11 10:11:00,71.0,67.0,29.94,WSW,252,0.0,0.0,86,-99.99,,,-99.99,,2013-09-11 15:11:00,
2013-09-11 10:22:00,73.0,67.0,29.94,WSW,247,0.0,0.0,81,-99.99,,,-99.99,,2013-09-11 15:22:00,
2013-09-11 10:43:00,73.0,66.0,29.95,WSW,250,0.0,0.0,79,-99.99,,,-99.99,,2013-09-11 15:43:00,
2013-09-11 10:54:00,75.0,67.0,29.95,WNW,286,0.0,0.0,75,-99.99,,,-99.99,,2013-09-11 15:54:00,
2013-09-11 11:03:00,75.0,67.0,29.95,WNW,286,0.0,0.0,75,-99.99,,,-99.99,,2013-09-11 16:03:00,
2013-09-11 11:13:00,75.0,67.0,29.95,WNW,286,0.0,0.0,75,-99.99,,,-99.99,,2013-09-11 16:13:00,
2013-09-11 11:23:00,77.0,65.0,29.95,WSW,257,0.0,0.0,67,-99.99,,,-99.99,,2013-09-11 16:23:00,
2013-09-11 11:53:00,80.0,66.0,29.94,West,272,0.0,0.0,62,-99.99,,,-99.99,,2013-09-11 16:53:00,
2013-09-11 12:12:00,80.0,64.0,29.94,West,271,0.0,0.0,58,-99.99,,,-99.99,,2013-09-11 17:12:00,
2013-09-11 12:23:00,80.0,64.0,29.94,WNW,300,0.0,0.0,58,-99.99,,,-99.99,,2013-09-11 17:23:00,
2013-09-11 12:52:00,80.0,64.0,29.95,West,273,0.0,0.0,58,-99.99,,,-99.99,,2013-09-11 17:52:00,
2013-09-11 13:12:00,80.0,63.0,29.94,West,280,0.0,0.0,57,-99.99,,,-99.99,,2013-09-11 18:12:00,
2013-09-11 13:22:00,80.0,63.0,29.94,West,280,0.0,0.0,57,-99.99,,,-99.99,,2013-09-11 18:22:00,
2013-09-11 13:52:00,82.0,63.0,29.94,West,268,0.0,0.0,52,-99.99,,,-99.99,,2013-09-11 18:52:00,
2013-09-11 14:11:00,84.0,62.0,29.94,WNW,285,0.0,0.0,48,-99.99,,,-99.99,,2013-09-11 19:11:00,
2013-09-11 14:22:00,84.0,60.0,29.94,East,84,0.0,0.0,45,-99.99,,,-99.99,,2013-09-11 19:22:00,
2013-09-11 14:32:00,84.0,60.0,29.94,East,84,0.0,0.0,45,-99.99,,,-99.99,,2013-09-11 19:32:00,
2013-09-11 14:42:00,84.0,60.0,29.94,East,84,0.0,0.0,45,-99.99,,,-99.99,,2013-09-11 19:42:00,
2013-09-11 14:52:00,81.0,61.0,29.93,West,266,0.0,0.0,50,-99.99,,,-99.99,,2013-09-11 19:52:00,
2013-09-11 15:12:00,81.0,61.0,29.93,ESE,108,0.0,0.0,50,-99.99,,,-99.99,,2013-09-11 20:12:00,
2013-09-11 15:22:00,82.0,61.0,29.94,NNE,14,0.0,0.0,50,-99.99,,,-99.99,,2013-09-11 20:22:00,
2013-09-11 15:32:00,82.0,61.0,29.94,NNE,14,0.0,0.0,50,-99.99,,,-99.99,,2013-09-11 20:32:00,
2013-09-11 15:42:00,82.0,61.0,29.94,NNE,14,0.0,0.0,50,-99.99,,,-99.99,,2013-09-11 20:42:00,
2013-09-11 15:52:00,81.0,62.0,29.93,SW,220,0.0,0.0,53,-99.99,,,-99.99,,2013-09-11 20:52:00,
2013-09-11 16:02:00,81.0,62.0,29.93,SW,220,0.0,0.0,53,-99.99,,,-99.99,,2013-09-11 21:02:00,
2013-09-11 16:12:00,81.0,62.0,29.93,SW,220,0.0,0.0,53,-99.99,,,-99.99,,2013-09-11 21:12:00,
2013-09-11 16:22:00,81.0,60.0,29.93,West,278,0.0,0.0,49,-99.99,,,-99.99,,2013-09-11 21:22:00,
2013-09-11 16:44:00,81.0,59.0,29.93,West,264,0.0,0.0,48,-99.99,,,-99.99,,2013-09-11 21:44:00,
2013-09-11 16:54:00,81.0,61.0,29.93,West,271,0.0,0.0,51,-99.99,,,-99.99,,2013-09-11 21:54:00,
2013-09-11 17:13:00,81.0,61.0,29.93,North,6,0.0,0.0,50,-99.99,,,-99.99,,2013-09-11 22:13:00,
2013-09-11 17:24:00,82.0,60.0,29.93,NE,49,0.0,0.0,48,-99.99,,,-99.99,,2013-09-11 22:24:00,
2013-09-11 17:41:00,81.0,59.0,29.93,NNW,340,0.0,0.0,48,-99.99,,,-99.99,,2013-09-11 22:41:00,
2013-09-11 17:54:00,82.0,59.0,29.93,North,4,0.0,0.0,45,-99.99,,,-99.99,,2013-09-11 22:54:00,
2013-09-11 18:12:00,81.0,59.0,29.93,NNW,340,0.0,0.0,48,-99.99,,,-99.99,,2013-09-11 23:12:00,
2013-09-11 18:22:00,81.0,59.0,29.93,NNW,340,0.0,0.0,48,-99.99,,,-99.99,,2013-09-11 23:22:00,
2013-09-11 18:34:00,81.0,59.0,29.93,NNW,340,0.0,0.0,48,-99.99,,,-99.99,,2013-09-11 23:34:00,
2013-09-11 18:53:00,79.0,62.0,29.92,NW,316,0.0,0.0,57,-99.99,,,-99.99,,2013-09-11 23:53:00,
2013-09-11 19:01:00,79.0,62.0,29.92,NW,316,0.0,0.0,57,-99.99,,,-99.99,,2013-09-12 00:01:00,
2013-09-11 19:11:00,79.0,62.0,29.92,NW,316,0.0,0.0,57,-99.99,,,-99.99,,2013-09-12 00:11:00,
2013-09-11 19:22:00,81.0,65.0,29.92,NW,315,0.0,0.0,58,-99.99,,,-99.99,,2013-09-12 00:22:00,
2013-09-11 19:32:00,81.0,65.0,29.92,NW,315,0.0,0.0,58,-99.99,,,-99.99,,2013-09-12 00:32:00,
2013-09-11 19:42:00,81.0,65.0,29.92,NW,315,0.0,0.0,58,-99.99,,,-99.99,,2013-09-12 00:42:00,
2013-09-11 19:52:00,76.0,65.0,29.92,NW,315,0.0,0.0,68,-99.99,,,-99.99,,2013-09-12 00:52:00,
2013-09-11 20:11:00,74.0,63.0,29.92,NW,315,0.0,0.0,68,-99.99,,,-99.99,,2013-09-12 01:11:00,
2013-09-11 20:22:00,71.0,62.0,29.93,NW,316,0.0,0.0,74,-99.99,,,-99.99,,2013-09-12 01:22:00,
2013-09-11 20:42:00,70.0,61.0,29.93,NW,316,0.0,0.0,74,-99.99,,,-99.99,,2013-09-12 01:42:00,
2013-09-11 20:52:00,68.0,62.0,29.94,SW,224,0.0,0.0,80,-99.99,,,-99.99,,2013-09-12 01:52:00,
2013-09-11 21:12:00,68.0,62.0,29.94,SW,224,0.0,0.0,81,-99.99,,,-99.99,,2013-09-12 02:12:00,
2013-09-11 21:22:00,68.0,61.0,29.94,SW,224,0.0,0.0,79,-99.99,,,-99.99,,2013-09-12 02:22:00,
2013-09-11 22:11:00,68.0,62.0,29.94,SW,219,0.0,0.0,80,-99.99,,,-99.99,,2013-09-12 03:11:00,
2013-09-11 22:22:00,65.0,60.0,29.94,SW,229,0.0,0.0,83,-99.99,,,-99.99,,2013-09-12 03:22:00,
2013-09-11 22:45:00,65.0,60.0,29.94,SW,229,0.0,0.0,83,-99.99,,,-99.99,,2013-09-12 03:45:00,
2013-09-11 22:55:00,64.0,59.0,29.94,SW,229,0.0,0.0,85,-99.99,,,-99.99,,2013-09-12 03:55:00,
2013-09-11 23:05:00,64.0,59.0,29.94,SW,229,0.0,0.0,85,-99.99,,,-99.99,,2013-09-12 04:05:00,
2013-09-11 23:14:00,64.0,59.0,29.94,SW,229,0.0,0.0,85,-99.99,,,-99.99,,2013-09-12 04:14:00,
2013-09-11 23:24:00,63.0,59.0,29.96,East,79,0.0,0.0,87,-99.99,,,-99.99,,2013-09-12 04:24:00,
2013-09-11 23:44:00,65.0,59.0,29.96,SW,231,0.0,0.0,81,-99.99,,,-99.99,,2013-09-12 04:44:00,
2013-09-11 23:54:00,65.0,58.0,29.97,NW,322,0.0,0.0,78,-99.99,,,-99.99,,2013-09-12 04:54:00,